Location: Arbon
(43.0005°N, 0.7472°E)
Time: 22:02:10
(UTC+00:00)

Courier 1B Rocket - Pass Details

Date: 29 November 2020
Orbit: 920 x 1202 km, 28.2° (Epoch: 23 January)

Event Time Altitude Azimuth Distance (km) Brightness Sun altitude
Exits shadow 03:54:45 - 183° (S) 3,341 7.7 -34.5°
Reaches altitude 10° 03:56:31 10° 171° (S) 3,124 7.7 -34.2°
Maximum altitude 03:58:45 11° 154° (SSE) 3,019 7.8 -33.8°
Drops below altitude 10° 04:01:00 10° 137° (SE) 3,124 8.1 -33.3°
Sets 04:06:25 0° 107° (ESE) 4,065 9.2 -32.4°
